Location: Pitton
(51.0667°N, 1.7000°W)
Time: 05:34:21
(UTC+00:00)

Cosmos 2333 Rocket - Pass Details

Date: 17 September 2019
Orbit: 840 x 862 km, 70.8° (Epoch: 23 October)

Event Time Altitude Azimuth Distance (km) Brightness Sun altitude
Rises 19:42:05 0° 326° (NNW) 3,422 6.3 -13.8°
Reaches altitude 10° 19:44:36 10° 322° (NW) 2,485 5.6 -14.2°
Maximum altitude 19:50:03 49° 249° (WSW) 1,094 3.1 -15.0°
Drops below altitude 10° 19:55:31 10° 176° (S) 2,484 4.4 -15.7°
Enters shadow 19:57:15 - 172° (S) 3,120 4.8 -16.0°
